Location: Brown Observing Site
(43.4354°N, 116.3366°W)
Time: 02:02:19
(UTC-06:00)

Envisat - Pass Details

Date: 07 October 2020
Orbit: 764 x 766 km, 98.1° (Epoch: 23 October)

Event Time Altitude Azimuth Distance (km) Brightness Sun altitude
Rises 19:38:51 0° 190° (S) 3,216 6.4 -5.2°
Reaches altitude 10° 19:41:21 10° 200° (SSW) 2,294 5.8 -5.7°
Maximum altitude 19:45:54 33° 264° (W) 1,267 5.1 -6.5°
Drops below altitude 10° 19:50:28 10° 328° (NNW) 2,309 5.9 -7.3°
Sets 19:53:01 0° 338° (NNW) 3,239 6.5 -7.8°
